Regional Weather Roundup
Issued by NWS Wilmington, NC

Home | Current Version | Previous Version | Text Only | Print | Product List | Glossary On
Versions: 1 2 3 4 5 6 7 8 9 10 11 12 13 14 15 16 17 18 19 20 21 22 23 24 25 26 27
000
ASUS42 KILM 191713
RWRILM
RWRILM
REGIONAL HOURLY WEATHER ROUNDUP
NATIONAL WEATHER SERVICE WILMINGTON NC
1200 PM EST FRI JAN 19 2018

NOTE: "FAIR" INDICATES FEW OR NO CLOUDS BELOW 12,000 FEET WITH NO
SIGNIFICANT WEATHER AND/OR OBSTRUCTIONS TO VISIBILITY.

...............WFO WILMINGTON COUNTY WARNING AREA...............

......COASTAL NC AND SC COUNTIES......

CITY           SKY/WX    TMP DP  RH WIND       PRES   REMARKS
WILMINGTON     FAIR      54  19  25 SW13      30.25F
N MYRTLE BEACH FAIR      51  27  39 S8        30.26F
MYRTLE BEACH   FAIR      54  18  24 W10       30.28F

......INLAND NC AND SC COUNTIES.......

CITY           SKY/WX    TMP DP  RH WIND       PRES   REMARKS
LUMBERTON      FAIR      47  25  42 SW8       30.24F
ELIZABETHTOWN  NOT AVBL
WHITEVILLE     FAIR      49  19  31 SW6       30.25F
FLORENCE       FAIR      49  18  29 VRB3      30.26F
DARLINGTON     FAIR      46  24  42 CALM      30.25F
KINGSTREE      FAIR      50  14  23 SW7       30.28F
HARTSVILLE     FAIR      48  21  34 SW5       30.24F
BENNETTSVILLE  FAIR      46  25  42 CALM      30.24F
CONWAY         FAIR      50  21  32 W6        30.27F HAZE
GEORGETOWN     FAIR      54  12  19 W15       30.29F
MARION         FAIR      48  19  32 W8        30.26F

....................REST OF NORTH CAROLINA......................

.........EASTERN NC.........

CITY           SKY/WX    TMP DP  RH WIND       PRES   REMARKS
CAPE HATTERAS  FAIR      45  31  58 W8        30.22F
JACKSONVILLE   FAIR      51  20  29 W8        30.24F
MOREHEAD CITY  FAIR      48  30  49 SW9       30.23F
KENANSVILLE    FAIR      50  19  29 W9        30.24F
NEW BERN       FAIR      52  21  29 SW10      30.23F
ELIZABETH CITY FAIR      43  28  55 W9        30.18F

.........CENTRAL NC.........

CITY           SKY/WX    TMP DP  RH WIND       PRES   REMARKS
RALEIGH DURHAM FAIR      42  20  41 CALM      30.22F
ROCKY MOUNT    NOT AVBL
ROANOKE RAPIDS NOT AVBL
FAYETTEVILLE   FAIR      48  22  35 W3        30.23F
HOFFMAN        FAIR      47  26  44 CALM      30.23F

.........WESTERN NC.........

CITY           SKY/WX    TMP DP  RH WIND       PRES   REMARKS
CHARLOTTE      FAIR      48  19  31 CALM      30.22F
GREENSBORO     FAIR      46  10  23 NW8       30.19F
HICKORY        NOT AVBL
BOONE          NOT AVBL
ASHEVILLE      NOT AVBL

.....................REST OF SOUTH CAROLINA.....................

.........EASTERN SC.........

CITY           SKY/WX    TMP DP  RH WIND       PRES   REMARKS
CHARLESTON     FAIR      56  14  19 W9        30.29F
BEAUFORT MCAS  FAIR      53  13  20 W8        30.31F
HILTON HEAD    SUNNY     50  18  27 W9        30.33F

.........CENTRAL SC.........

CITY           SKY/WX    TMP DP  RH WIND       PRES   REMARKS
COLUMBIA       FAIR      49  20  31 SW6       30.26F
ORANGEBURG     FAIR      50  17  27 SW9       30.27F
SUMTER SHAW    FAIR      49  18  29 S6        30.23F

.........WESTERN SC.........

CITY           SKY/WX    TMP DP  RH WIND       PRES   REMARKS
GREENVILLE     NOT AVBL
ROCK HILL      FAIR      45  22  40 CALM      30.22F
ANDERSON       FAIR      47  19  33 SW3       30.24F
CLEMSON        NOT AVBL
GREENWOOD      FAIR      45  20  36 SW5       30.26F


...................COASTAL AND OFFSHORE REPORTS..................

................LOCAL PIERS AND NC RESERVE................


STATION/POSITION TIME  SKY/WX   TEMP    WIND        PRES    VSBY
                                AIR SEA DIR/SP/G
                 (UTC)          (F)     (DEG/KT/KT) (MB)    (MI)
JOHNY MRCER PIER 1642            51 47  250/  9/ 16 1024.5F
NC RESRV MASNBRO 1545            48     280/  3     1025.0
OCEAN CREST PIER NOT AVBL
SPRINGMAID  PIER 1642                               1028.1F


................COASTAL AND OFFSHORE BUOYS................


STATION/POSITION TIME  SKY/WX   TEMP    WIND        PRES    VSBY
                                AIR SEA DIR/SP/G
                 (UTC)          (F)     (DEG/KT/KT) (MB)    (MI)
DIMNDSHOAL 41025 1650            48 51  280/ 10/ 14 1023.6F
WVE H/P(F/S)=  6/10 SWL H/P/D(F/S/D)=  5/ 70/10

CAPE LOOKOUT     1700                   250/ 10/ 13 1024.0F
ONSLOW BAY 41036 NOT AVBL
ONSLOW BAY 41064 1608            49 57  260/ 12/ 16 1025.2R
ONSLOW BAY 41159 1700               57                N/A
WVE H/P(F/S)=  4/11 SWL H/P/D(F/S/D)=  2/ 90/11

MASNBO INL 41110 1659               45                N/A
WVE H/P(F/S)=  2/11 SWL H/P/D(F/S/D)=  2/100/11

WILM HARBR 41108 1700               45                N/A
WVE H/P(F/S)=  2/ 4

27SE WRITB 41037 1608            50 60  260/ 16/ 21 1025.4R
FRYING PAN 41013 1650            52 63  260/ 16/ 21 1025.2F
WVE H/P(F/S)=  3/10 SWL H/P/D(F/S/D)=  2/ 70/10

SUNST NRSH 41024 1608            43     250/  8/ 10 1025.4S
CAPRS NRSH 41029 1608            44 48  250/ 14/ 21 1026.1F
EDISTO     41004 1650            54 70  250/ 16/ 19 1026.0F
WVE H/P(F/S)=  3/ 4 SWL H/P/D(F/S/D)=  2/110/11



..........OFFSHORE BUOYS BEYOND 100 NM OFFSHORE...........
.....IN A TRIANGLE---HAT TO BERMUDA TO BAHAMAS TO HAT.....


STATION/POSITION TIME  SKY/WX   TEMP    WIND        PRES    VSBY
                                AIR SEA DIR/SP/G
                 (UTC)          (F)     (DEG/KT/KT) (MB)    (MI)
150E HAT   41001 NOT AVBL
W BERMUDA  41048 1650            63 70  310/ 14/ 17 1023.1F
WVE H/P(F/S)= 13/11 SWL H/P/D(F/S/D)= 11/360/11

ATLANTIC S 41049 1650            71 77  340/ 12/ 14 1020.2F
WVE H/P(F/S)= 11/11 SWL H/P/D(F/S/D)= 10/320/11

E BAHAMAS  41046 1650            74 79   20/ 16/ 21 1021.2F
WVE H/P(F/S)= 10/ 9 SWL H/P/D(F/S/D)=  8/350/ 9

NE BAHAMAS 41047 1650            66      10/ 12/ 17 1024.0F
WVE H/P(F/S)= 13/12 SWL H/P/D(F/S/D)= 11/360/12

120E CANVRL41010 NOT AVBL

END




USA.gov is the U.S. government's official web portal to all federal, state and local government web resources and services.